Location: Bochnia
(49.9699°N, 20.4315°E)
Time: 22:23:30
(UTC+02:00)

ISS - Visible Passes

Search period start: 22 September 2018 00:00
Search period end: 02 October 2018 00:00
Orbit: 403 x 408 km, 51.6° (Epoch: 23 September)

Date Brightness Start Highest point End Pass type
(mag) Time Alt. Az. Time Alt. Az. Time Alt. Az.
22 Sep -1.8 20:27:38 10° SSW 20:28:53 18° SSW 20:28:53 18° SSW visible
23 Sep -2.2 19:36:27 10° S 19:38:50 18° SE 19:39:38 17° ESE visible
23 Sep -1.2 21:11:39 10° WSW 21:12:21 15° WSW 21:12:21 15° WSW visible
24 Sep -3.5 20:19:53 10° SW 20:22:54 50° S 20:22:54 50° S visible
25 Sep -3.0 19:28:17 10° SW 19:31:18 34° SSE 19:33:18 17° E visible
25 Sep -1.8 21:04:21 10° W 21:05:59 27° W 21:05:59 27° W visible
26 Sep -3.9 20:12:25 10° WSW 20:15:43 83° SSE 20:16:15 60° E visible
27 Sep -3.7 19:20:34 10° SW 19:23:49 60° SSE 19:26:26 15° ENE visible
27 Sep -2.1 20:57:04 10° W 20:59:06 33° WNW 20:59:06 33° WNW visible
28 Sep -3.7 20:05:05 10° W 20:08:22 72° N 20:09:12 46° ENE visible
28 Sep -0.3 21:41:45 10° WNW 21:41:52 11° WNW 21:41:52 11° WNW visible
29 Sep -3.8 19:13:05 10° WSW 19:16:24 88° NNW 19:19:14 13° ENE visible
29 Sep -2.2 20:49:45 10° W 20:51:54 36° WNW 20:51:54 36° WNW visible
30 Sep -3.6 19:57:44 10° W 20:01:00 63° N 20:01:54 42° ENE visible
30 Sep -0.4 21:34:20 10° WNW 21:34:34 12° WNW 21:34:34 12° WNW visible
01 Oct -3.6 19:05:41 10° W 19:08:59 68° N 19:11:53 13° ENE visible
01 Oct -2.4 20:42:20 10° WNW 20:44:32 38° WNW 20:44:32 38° WNW visible
